{"data":{"norad_id":67064,"intl_designator":"2025-295F","name":"HULIANWANG DIGUI-124","alt_names":[],"object_type":"PAYLOAD","status":"ACTIVE","operator":null,"country":"PRC","launch_date":"2025-12-11","launch_site_code":"WSC","launch_vehicle":null,"mission":null,"orbit_class":"UNKNOWN","rcs_meters":null,"size_class":null,"mass_kg":null,"dimensions":null,"purposes":[],"wikipedia_slug":null,"has_3d_model":false,"image_url":null,"decayed_at":null,"tle_current":{"epoch":"2026-05-25T04:26:38.979168Z","epoch_age_seconds":69523,"freshness":"FRESH","line1":"1 67064U 25295F   26145.18517337 -.00000083  00000+0  89436-4 0  9994","line2":"2 67064  49.9985 107.8536 0000830 354.1197   5.9665 13.29325524 22449","mean_motion":13.29325524,"eccentricity":8.3e-5,"inclination_deg":49.9985,"raan_deg":107.8536,"arg_perigee_deg":354.1197,"mean_anomaly_deg":5.9665,"bstar":8.9436e-5,"rev_number":2244,"period_min":108.325611297,"perigee_km":1148.683590821,"apogee_km":1149.9331467522,"semimajor_km":7527.4453687866,"source":"CELESTRAK","updated_at":"2026-05-25T13:38:06.702044Z"}}}